ATLAS 5 CENTAUR DEB, 52969

Orbit data source: Space-Track

ATLAS 5 CENTAUR DEB, 52969 is space debris in HEO originally from a launch on Wed, 17 Oct 2018 UTC launched from the Air Force Eastern Test Range (AFETR). Debris objects in space refer to the collection of defunct objects orbiting the Earth. Examples of debris include non-operational satellites, rocket bodies, and fragments generated from explosions, collisions, or faulty payload assembly.

Loading next visibility...
Identifier
52969, 2018-079GT
Orbit
HEO
Country
Flag of USUS
Related business
Flag of USUnited Launch Alliance/Lockheed Martin (US)
Manufacturer
ULA Decatur
Mission
Spacecraft
Bus & Motor
Unknown
Mass
Unknown
Launch date (UTC)
2018-10-17 (7 years ago)
Launch vehicle
Unknown
Launch site
Air Force Eastern Test Range (AFETR)
Object type
Payload
Rocket body
Debris
Shape & HBR
Unknown shape, 1.1 m
Radar Cross Section
RCS unknown

Expand to show TLE details & history
Last TLE update: 2 days ago

TLE from 2 days ago
0 ATLAS 5 CENTAUR DEB
1 52969U 18079GT  25293.77971094 -.00000119  00000-0  00000-0 0  9993
2 52969  12.8337  49.9984 4525064 308.1112  19.1357  1.94518391 24117
Epoch: 2025-10-20T18:42Z
TLE epoch observation values (Epoch: 2025-10-20T18:42:47.025Z)
Latitude
-0.00007°
Longitude
99.80244°
Altitude
10,443.484 km
Speed
5.717 km/s
True Right ascension
03h 19m 54s
True Declination
0° 00' 00"
Sunlit
Object was in daylight at epoch
Visualization orbit readout
Latitude
Unknown
Longitude
Unknown
Altitude
Unknown
Speed
Unknown
Apparent Right ascension
Unknown
Apparent Declination
Unknown
Sunlit
N/A
Visualization observer readout
Local Sidereal Time
10:10:37
Azimuth
Unknown
Elevation
Unknown
Doppler factor
Unknown
Orbital elements
Apogee altitude
32,999.263 km
Perigee altitude
8,464.396 km
Semi-major axis
27,109.967 km
Eccentricity
0.45251
Inclination
12.8337°
RAAN
49.9984°
Arg. of periapsis
308.1112°
True anomaly
52.1044°
Mean anomaly
19.1357°
Eccentric anomaly
33.41262°
Mean motion
0.48624 °/min
Orbital period
740.38 mins
BSTAR
0
Loading maneuver chart data...
Computing Atmospheric mass density...

Documentation

Showing up to 5 results
|